Terminal Aerodrome Forecast
Issued by NWS

Home | Current Version | Previous Version | Text Only | Print | Product List | Glossary On
Versions: 1 2 3 4 5 6 7 8 9 10 11 12 13 14 15 16 17 18
000
FTUS41 KGYX 200500
TAFRKD
TAF
KRKD 200520Z 2006/2106 29005KT P6SM FEW250
     FM201300 04009KT P6SM SKC
     FM201800 19009KT P6SM SKC
     FM210000 24004KT P6SM SKC
      AMD LTD TO CLD VIS AND WIND=

USA.gov is the U.S. government's official web portal to all federal, state and local government web resources and services.